Regional Weather Roundup
Issued by NWS

Home | Current Version | Previous Version | Graphics & Text | Print | Product List | Glossary On
Versions: 1 2 3 4 5 6 7 8 9 10 11 12 13 14 15 16 17 18 19 20 21 22 23 24 25 26 27 28 29 30 31 32 33 34 35 36 37 38 39 40 41 42 43 44 45 46 47 48 49 50
000
ASUS43 KDMX 272307
RWRIA

WEATHER ROUNDUP FOR IOWA
NATIONAL WEATHER SERVICE DES MOINES IA
600 PM CDT MON APR 27 2015

NOTE: "FAIR" INDICATES FEW OR NO CLOUDS BELOW 12,000 FEET WITH NO
SIGNIFICANT WEATHER AND/OR OBSTRUCTIONS TO VISIBILITY.

* - THESE STATIONS ARE NOT NWS STATIONS...THUS NOT UNDER NWS
QUALITY CONTROL.  THEY ALSO DO NOT REPORT WEATHER SUCH
AS PRECIPITATION OR FOG.

IAZ001>003-012>014-020>022-031>034-043>046-280000-
   NORTHWEST IOWA

CITY           SKY/WX    TMP DP  RH WIND       PRES   REMARKS
CARROLL *      SUNNY     66  30  26 NE15G24   30.11F
CHEROKEE *     SUNNY     66  32  28 N7        30.14S
DENISON *      SUNNY     66  30  26 NE9       30.10F
LE MARS *      SUNNY     70  23  17 MISG      30.14F
ORANGE CITY *  SUNNY     68  27  21 E7        30.14F
SHELDON *      SUNNY     68  21  17 N6G12     30.13F
SIOUX CITY     MOSUNNY   71  22  15 NE9       30.13F
SPENCER        SUNNY     69  29  22 E10G17    30.15S
STORM LAKE *   SUNNY     66  28  24 NE12      30.15S
$$

IAZ055>058-069>071-079>083-090>094-280000-
   SOUTHWEST IOWA

CITY           SKY/WX    TMP DP  RH WIND       PRES   REMARKS
ATLANTIC *     SUNNY     66  32  28 NE14      30.10F
AUDUBON *      SUNNY     66  27  22 NE9G16    30.13S
CLARINDA *     SUNNY     68  32  26 NE12G21   30.10F
COUNCIL BLFS * SUNNY     68  32  26 NE14      30.11S
CRESTON *      SUNNY     64  32  29 NE15      30.10F
HARLAN  *      SUNNY     68  30  24 NE15      30.14S
LAMONI         SUNNY     66  34  30 NE10      30.09S
RED OAK *      SUNNY     68  34  28 NE15      30.09F
SHENANDOAH *   SUNNY     68  34  28 E14       30.10S
$$

IAZ047>049-059>061-072>074-084-280000-
   CENTRAL IOWA

CITY           SKY/WX    TMP DP  RH WIND       PRES   REMARKS
AMES           SUNNY     66  32  28 N12       30.11F
ANKENY *       SUNNY     66  32  28 NE10G16   30.10F
CHARITON *     SUNNY     64  34  32 NE12      30.09F
DES MOINES     MOSUNNY   68  29  23 E10       30.10F
GRINNELL*      SUNNY     66  32  28 N10G16    30.10F
KNOXVILLE *    SUNNY     64  32  29 NE9G16    30.09S
MARSHALLTOWN   SUNNY     66  33  29 NE10      30.09F
PELLA *        SUNNY     68  41  37 NE3       30.11S
PERRY *          N/A     66  32  28 E12       30.11S
$$

IAZ004>006-015-016-023>025-035-036-280000-
   NORTH CENTRAL IOWA

CITY           SKY/WX    TMP DP  RH WIND       PRES   REMARKS
ALGONA *       SUNNY     66  30  26 N9G16     30.14S
CLARION *      SUNNY     66  30  26 NE14      30.12F
ESTHERVILLE    SUNNY     66  30  26 NE12      30.15S
FORT DODGE *   SUNNY     66  34  30 NE9       30.13F
MASON CITY     SUNNY     67  31  26 NE14      30.13F
FOREST CITY *  SUNNY     63  32  31 N8        30.13F
IOWA FALLS *     N/A     66  30  26 NE9       30.12F
$$

IAZ007>011-017>019-026>030-037>042-050>054-066-280000-
   NORTHEAST IOWA

CITY           SKY/WX    TMP DP  RH WIND       PRES   REMARKS
CEDAR RAPIDS   SUNNY     66  34  30 N12       30.08F
CHARLES CITY * SUNNY     66  30  26 N14G20    30.12F
CLINTON *      SUNNY     64  36  34 N13       30.11F
DECORAH *      SUNNY     64  32  29 N9G16     30.11S
DUBUQUE        SUNNY     64  34  32 N12G20    30.10F
MONTICELLO *   SUNNY     66  32  28 N12       30.09S
OELWEIN *      SUNNY     64  32  29 N13       30.11S
WATERLOO       SUNNY     67  32  27 NE10      30.10F
$$

IAZ064-065-067-068-078-280000-
   EAST CENTRAL IOWA

CITY           SKY/WX    TMP DP  RH WIND       PRES   REMARKS
DAVENPORT      SUNNY     64  35  34 NE14      30.09F
IOWA CITY      SUNNY     66  36  32 NE10      30.09F
MT. PLEASANT * SUNNY     64  34  32 N12G17    30.08F
MUSCATINE *    SUNNY     66  34  30 NE12G20   30.09S
QUAD CITIES    SUNNY     65  33  30 NE12      30.08S
$$

IAZ062-063-075>077-085>089-095>099-280000-
   SOUTHEAST IOWA

CITY           SKY/WX    TMP DP  RH WIND       PRES   REMARKS
BURLINGTON     SUNNY     65  37  35 NE12      30.07F
FAIRFIELD *    SUNNY     64  36  34 NE10      30.09F
FORT MADISON * SUNNY     64  36  34 N10       30.08F
KEOKUK *       SUNNY     64  36  34 N10       30.07S
OSKALOOSA *      N/A     64  32  29 N8        30.09F
CENTERVILLE *  SUNNY     64  36  34 NE7       30.10S
OTTUMWA        SUNNY     65  35  33 NE10      30.08F
WASHINGTON *   SUNNY     66  36  32 NE13      30.09S
$$

ABBREVIATIONS USED IN REMARKS
   TC - TEMPERATURES IN CELSIUS
  WCI - WIND CHILL INDEX
   HX - HEAT INDEX
  VSB - VISIBILITY
$$




USA.gov is the U.S. government's official web portal to all federal, state and local government web resources and services.